Date,TemperatureHighF,TemperatureAvgF,TemperatureLowF,DewpointHighF,DewpointAvgF,DewpointLowF,HumidityHigh,HumidityAvg,HumidityLow,PressureMaxIn,PressureMinIn,WindSpeedMaxMPH,WindSpeedAvgMPH,GustSpeedMaxMPH,PrecipitationSumIn
2013-1-1,29.7,18.3,9.0,15.9,10.4,3.5,83,72,55,30.61,30.40,1,0,1,0.00
2013-1-2,31.3,20.0,11.2,16.4,11.3,5.1,79,70,49,30.60,30.47,6,1,6,0.00
2013-1-3,33.4,20.0,9.5,20.4,12.0,4.0,80,71,49,30.54,30.45,2,1,2,0.00
2013-1-4,37.2,22.4,10.7,21.2,14.2,5.5,82,71,48,30.56,30.42,3,0,3,0.00
2013-1-5,40.6,26.1,15.1,30.6,19.8,9.5,86,77,55,30.48,30.21,2,0,3,0.01
2013-1-6,38.3,28.5,21.8,26.5,21.6,18.0,86,76,52,30.30,30.14,2,0,2,0.00
2013-1-7,41.2,26.9,14.4,30.6,21.3,9.9,86,80,56,30.45,30.32,1,0,1,0.01
2013-1-8,46.0,32.2,25.3,33.7,27.6,22.2,90,84,60,30.42,30.28,1,0,1,0.31
2013-1-9,46.4,33.8,24.7,31.8,26.8,21.9,92,78,46,30.29,29.80,4,0,4,0.37
2013-1-10,28.4,24.8,19.2,23.6,20.7,14.9,88,84,73,30.13,29.88,0,0,0,0.00
2013-1-11,28.7,19.9,12.9,22.1,14.8,7.9,83,80,72,30.30,30.13,0,0,0,0.00
2013-1-12,25.4,11.7,-0.4,16.7,4.6,-7.2,80,73,60,30.43,30.30,0,0,0,0.00
2013-1-13,24.1,8.0,-5.9,9.5,-0.8,-13.1,79,68,47,30.59,30.44,0,0,0,0.00
2013-1-14,27.8,14.6,5.8,12.6,5.4,-1.0,75,67,46,30.71,30.61,0,0,0,0.00
2013-1-15,37.9,21.9,9.5,25.3,14.0,3.5,81,72,56,30.84,30.72,6,0,6,0.00
2013-1-16,41.9,27.0,16.5,25.0,18.5,12.0,82,71,46,30.81,30.61,2,1,2,0.05
2013-1-17,39.2,26.5,18.3,20.7,16.0,11.7,77,66,40,30.65,30.52,5,1,5,0.02
2013-1-18,37.3,24.8,14.4,19.0,14.7,8.5,78,66,42,30.59,30.48,4,2,4,0.00
2013-1-19,37.9,24.2,14.6,18.8,14.3,7.8,78,66,42,30.64,30.50,3,1,3,0.00
2013-1-20,40.9,25.2,13.8,21.7,15.0,8.5,80,66,40,30.61,30.48,4,1,4,0.02
2013-1-21,44.5,28.6,18.1,24.2,17.1,12.1,77,64,36,30.54,30.36,3,1,3,0.04
2013-1-22,45.5,29.9,18.1,26.7,19.7,12.4,83,67,38,30.42,30.23,2,0,2,0.09
2013-1-23,51.6,35.0,25.6,30.8,23.4,12.3,87,67,22,30.25,30.12,10,1,10,0.16
2013-1-24,39.9,35.5,33.1,38.5,33.7,30.9,95,93,89,30.28,30.19,1,0,1,0.30
2013-1-25,43.8,36.6,33.5,41.3,35.1,32.2,96,94,90,30.28,30.09,1,0,1,0.07
2013-1-26,44.3,35.8,30.7,38.9,30.9,23.3,96,83,58,30.08,29.86,9,2,9,0.04
2013-1-27,33.8,28.5,19.9,28.1,23.5,15.9,90,82,65,30.18,29.93,2,0,2,0.03
2013-1-28,37.3,24.6,15.1,27.3,18.4,10.6,87,78,56,30.34,30.19,2,0,2,0.04
2013-1-29,43.6,29.5,19.7,33.8,24.3,16.2,87,81,67,30.50,30.33,1,0,1,0.11
2013-1-30,50.2,32.0,21.1,30.6,24.0,17.6,91,75,32,30.54,30.41,1,0,1,0.02
2013-1-31,51.7,30.0,20.6,28.1,22.8,17.1,88,77,36,30.48,30.30,2,0,2,0.00
2013-2-1,51.4,29.9,18.8,27.5,20.9,14.5,85,73,29,30.44,30.32,1,0,1,0.00
2013-2-2,48.5,33.7,23.2,30.0,25.5,19.9,87,74,46,30.47,30.36,1,0,1,0.00
2013-2-3,51.7,31.4,21.3,27.4,22.4,17.8,87,73,28,30.37,30.25,1,0,1,0.00
2013-2-4,54.7,33.3,21.3,28.7,22.7,17.5,86,69,26,30.33,30.15,5,0,5,0.00
2013-2-5,47.6,33.4,23.0,29.9,25.0,19.5,87,73,45,30.16,29.99,4,0,4,0.00
2013-2-6,48.8,31.7,20.0,27.3,21.6,15.9,86,70,28,30.23,30.12,2,0,2,0.00
2013-2-7,38.3,31.6,27.2,30.0,24.0,20.3,86,73,64,30.13,29.93,11,1,11,0.00
2013-2-8,34.9,28.9,22.2,24.6,18.5,13.8,87,67,44,30.06,29.92,10,1,10,0.00
2013-2-9,39.8,26.2,15.2,19.7,15.2,10.4,81,65,37,30.22,30.07,3,0,3,0.00
2013-2-10,40.3,26.6,15.2,20.9,15.6,10.4,82,65,37,30.26,30.18,2,0,2,0.00
2013-2-11,45.5,28.2,16.1,23.3,16.7,11.6,83,65,30,30.40,30.25,5,0,5,0.00
2013-2-12,50.1,30.5,18.1,25.6,19.7,13.8,84,67,30,30.50,30.38,2,0,2,0.00
2013-2-13,25.8,24.6,23.2,20.5,19.9,18.8,83,82,80,30.50,30.48,0,0,0,0.00
2013-2-18,48.9,37.0,22.2,27.6,23.9,18.4,85,61,35,30.06,29.83,4,0,4,0.00
2013-2-19,35.0,30.0,24.2,29.4,24.3,20.4,89,80,64,29.82,29.62,2,0,2,0.00
2013-2-20,39.2,27.6,17.2,27.4,21.1,12.9,87,78,47,30.09,29.81,3,0,3,0.09
2013-2-21,40.9,28.3,20.5,25.4,20.0,16.5,88,73,40,30.24,30.07,2,0,2,0.07
2013-2-22,50.7,34.1,19.1,28.8,22.1,15.1,86,65,32,30.35,30.14,3,0,3,0.15
2013-2-23,38.8,33.7,27.0,29.2,18.6,10.2,80,55,33,30.28,29.98,6,1,6,0.00
2013-2-24,44.8,31.1,23.3,20.4,14.4,8.2,69,53,22,30.40,30.28,4,0,4,0.01
2013-2-25,47.6,32.6,19.5,24.4,17.6,11.5,79,59,23,30.33,30.20,5,1,5,0.00
2013-2-26,46.2,31.1,19.2,20.4,16.1,10.5,84,58,23,30.37,30.28,5,0,5,0.00
2013-2-27,54.5,33.5,16.9,25.4,17.4,11.6,80,57,21,30.44,30.32,2,0,2,0.00
2013-2-28,31.2,30.6,30.0,23.2,23.0,22.7,74,73,72,30.43,30.43,0,0,0,0.00
2013-3-15,59.9,48.0,39.1,35.8,33.1,29.2,73,58,31,30.29,30.27,2,0,2,0.00
2013-3-16,62.0,42.3,27.8,32.3,27.1,20.5,87,61,20,30.29,30.12,5,1,5,0.00
2013-3-17,60.1,41.4,26.9,30.3,24.8,13.8,86,59,16,30.23,30.15,4,0,4,0.00
2013-3-18,59.0,41.4,25.7,31.5,24.1,15.0,84,57,18,30.28,30.15,6,1,6,0.00
2013-3-19,56.5,45.2,39.1,39.4,34.6,30.2,92,68,41,30.24,30.13,2,0,2,0.20
2013-3-20,48.0,41.9,37.5,40.9,37.7,33.3,95,85,63,30.14,30.07,9,2,9,0.83
2013-3-21,52.6,40.3,29.1,34.0,29.2,23.5,92,68,32,30.22,30.09,4,1,5,0.00
2013-3-22,48.9,34.1,21.9,24.6,15.9,4.1,86,56,17,30.34,30.20,4,0,4,0.00
2013-3-23,57.5,38.4,23.2,29.0,19.3,12.9,76,52,17,30.39,30.18,4,1,4,0.00
2013-3-24,62.7,42.4,26.7,35.4,27.3,22.1,84,60,26,30.29,30.10,2,0,2,0.00
2013-3-25,61.5,44.0,28.1,32.5,27.1,20.8,87,58,21,30.16,30.01,4,1,4,0.00
2013-3-26,55.1,43.9,34.9,35.5,32.2,27.4,84,65,42,30.08,29.99,4,1,4,0.00
2013-3-27,56.9,44.3,34.7,36.6,33.4,30.3,85,68,42,30.11,30.03,5,1,5,0.00
2013-3-28,53.8,43.3,36.2,40.2,35.7,32.6,89,76,45,30.28,30.08,3,0,3,0.01
2013-3-29,65.0,45.4,30.7,41.7,34.0,28.4,92,70,27,30.34,30.20,3,0,3,0.00
2013-3-30,69.1,47.7,30.7,43.8,35.5,27.6,90,67,24,30.27,30.09,4,0,4,0.01
2013-3-31,49.6,44.2,39.3,42.0,37.9,34.6,92,79,57,30.12,30.04,4,0,4,0.14
2013-4-1,53.1,44.9,38.8,37.0,35.8,34.4,89,72,50,30.24,30.13,6,1,6,0.01
2013-4-2,62.3,46.3,32.2,41.7,35.2,29.3,92,69,33,30.30,30.17,7,0,7,0.00
2013-4-3,68.1,48.9,33.7,42.1,36.4,30.8,92,67,26,30.28,30.10,2,0,2,0.00
2013-4-4,49.9,44.5,40.9,44.6,40.5,36.8,92,86,78,30.15,30.01,5,1,5,0.23
2013-4-5,54.5,45.8,37.6,39.4,35.5,31.6,93,70,42,30.21,30.16,4,1,4,0.00
2013-4-6,55.4,47.0,41.6,37.7,34.5,31.4,79,63,43,30.19,30.14,6,1,6,0.00
2013-4-7,55.6,45.9,37.0,38.0,35.4,31.6,91,68,41,30.13,29.72,6,2,6,0.31
2013-4-8,46.0,37.7,32.5,33.6,28.5,21.0,92,72,38,30.21,29.71,7,1,7,0.09
2013-4-9,55.6,41.4,29.3,30.1,23.8,14.0,83,55,19,30.38,30.22,7,2,7,0.01
2013-4-10,71.5,48.0,28.4,39.5,31.8,24.8,86,59,22,30.46,30.10,1,0,1,0.00
2013-4-11,64.3,50.2,37.8,42.5,31.8,18.6,86,56,17,30.12,29.93,2,0,2,0.01
2013-4-12,69.6,48.6,28.4,33.9,29.1,24.5,85,54,22,30.10,29.92,4,1,4,0.00
2013-4-13,63.4,49.9,35.8,37.1,30.4,23.3,81,51,29,29.97,29.81,10,1,10,0.00
2013-4-14,59.3,43.8,28.7,33.1,27.2,22.0,85,56,27,29.93,29.79,9,2,9,0.00
2013-4-15,44.6,38.3,32.2,32.9,26.8,20.7,85,65,41,30.01,29.80,6,2,6,0.00
2013-4-16,43.1,34.2,26.9,28.4,22.9,15.5,86,66,34,30.37,30.03,7,1,7,0.01
2013-4-17,49.5,35.7,21.4,21.6,16.5,12.5,84,51,23,30.50,30.39,4,1,4,0.01
2013-4-18,63.1,43.8,23.6,31.1,21.5,15.0,76,47,20,30.53,30.37,3,0,3,0.00
2013-4-19,65.5,45.4,28.2,36.3,30.0,22.8,81,59,27,30.44,30.21,5,1,5,0.00
2013-4-20,67.8,49.2,30.6,38.9,29.9,22.6,86,55,18,30.30,30.10,2,0,2,0.00
2013-4-21,72.5,51.7,29.8,38.8,30.4,25.9,86,52,18,30.25,30.09,7,1,7,0.00
2013-4-22,70.8,52.1,33.7,36.2,28.3,14.9,86,49,12,30.19,30.02,2,0,2,0.00
2013-4-23,67.6,49.8,34.1,32.2,19.7,11.2,65,35,12,30.21,29.98,4,1,4,0.00
2013-4-24,67.6,48.4,28.1,27.6,18.3,10.0,80,41,11,30.16,30.01,5,1,5,0.00
2013-4-25,73.3,50.1,27.9,35.3,24.7,17.0,72,44,13,30.22,30.08,6,1,6,0.00
2013-4-26,76.8,55.0,33.1,37.9,32.5,23.2,84,51,14,30.32,30.21,2,0,2,0.00
2013-4-27,78.6,55.9,35.9,38.3,32.7,22.8,85,51,13,30.33,30.17,6,1,6,0.00
2013-4-28,77.9,56.4,35.2,46.6,35.3,26.6,82,53,15,30.21,30.00,2,0,2,0.00
2013-4-29,77.0,57.6,39.3,42.9,37.8,31.1,88,54,22,30.06,29.83,4,0,4,0.00
2013-4-30,70.4,53.6,38.0,38.2,21.2,9.2,83,39,10,30.15,29.87,8,1,8,0.00
2013-5-1,65.8,51.3,38.0,13.5,7.4,2.2,32,18,9,30.46,30.18,11,2,11,0.00
2013-5-2,76.3,54.1,33.5,36.8,21.5,10.9,59,32,11,30.48,30.22,4,1,4,0.00
2013-5-3,78.3,56.7,36.0,37.7,27.7,16.2,81,43,10,30.25,29.96,4,0,4,0.00
2013-5-4,70.6,50.4,34.4,35.8,29.5,23.5,74,49,18,30.03,29.75,4,1,4,0.00
2013-5-5,65.5,48.0,35.0,48.1,40.0,30.1,92,76,34,29.92,29.75,1,0,1,0.30
2013-5-6,54.4,48.0,43.1,44.9,42.2,38.6,94,81,59,30.01,29.89,1,0,1,0.06
2013-5-7,50.8,45.3,39.5,44.2,41.2,36.5,94,86,74,30.11,30.02,1,0,1,0.21
2013-5-8,65.0,53.6,46.8,46.9,44.9,43.0,90,74,46,30.15,30.07,8,0,8,0.00
2013-5-9,72.0,57.6,44.5,49.7,44.2,37.0,91,66,28,30.20,30.08,4,1,4,0.00
2013-5-10,78.6,59.9,43.5,55.1,44.4,29.9,92,64,17,30.25,30.14,1,0,1,0.00
2013-5-11,83.2,62.6,42.8,49.0,41.3,32.4,90,55,16,30.26,30.14,7,0,7,0.00
2013-5-12,81.1,62.3,44.3,47.5,38.5,29.5,85,50,16,30.22,30.10,8,1,8,0.00
2013-5-13,80.1,60.9,40.2,41.5,33.0,24.2,83,45,13,30.14,30.02,5,1,5,0.00
2013-5-14,81.2,61.7,40.2,43.5,36.4,27.1,80,46,14,30.06,29.91,5,1,5,0.00
2013-5-15,72.0,58.9,43.3,42.3,36.4,26.2,83,50,18,30.00,29.92,5,2,5,0.00
2013-5-16,57.3,50.8,45.7,43.7,40.4,37.3,87,68,47,29.98,29.91,4,1,4,0.01
2013-5-17,62.1,52.1,42.6,42.7,34.9,27.2,87,57,27,30.11,29.96,4,1,4,0.00
2013-5-18,67.4,51.6,33.7,37.4,33.8,29.4,84,56,28,30.20,30.12,6,1,6,0.00
2013-5-19,69.1,53.1,35.9,35.8,29.1,16.2,86,48,13,30.26,30.16,5,1,5,0.00
2013-5-20,76.8,57.2,34.6,38.6,31.0,26.5,78,43,17,30.23,30.00,5,1,5,0.00
2013-5-21,67.8,55.6,41.6,36.6,31.9,25.1,77,44,23,29.99,29.82,5,2,5,0.00
2013-5-22,59.3,47.1,35.6,29.2,18.6,10.8,60,35,16,29.94,29.83,8,1,8,0.00
2013-5-23,58.6,43.8,28.2,30.8,22.7,18.3,68,47,24,30.13,29.94,6,1,6,0.00
2013-5-24,66.1,48.6,28.4,29.6,23.6,13.9,82,46,13,30.12,30.01,4,1,4,0.00
2013-5-25,66.9,51.3,32.9,33.5,29.2,23.4,78,48,20,30.06,29.99,5,1,5,0.00
2013-5-26,63.7,50.5,33.2,35.9,31.2,25.6,82,52,27,30.17,30.04,7,1,7,0.00
2013-5-27,56.2,46.8,34.6,43.7,37.7,29.7,89,72,50,30.16,30.01,5,1,5,0.01
2013-5-28,64.2,53.4,45.4,43.9,41.4,36.7,91,67,36,30.01,29.94,6,1,6,0.02
2013-5-29,65.6,55.6,46.0,43.4,39.1,34.6,84,57,32,29.99,29.86,5,1,5,0.00
2013-5-30,72.0,54.7,35.0,38.2,34.5,31.0,85,52,25,30.11,29.99,6,1,6,0.00
2013-5-31,80.3,59.0,34.7,34.3,28.6,18.8,81,42,10,30.19,30.06,4,0,4,0.00
2013-6-1,84.7,63.0,37.0,44.0,34.0,25.4,73,41,14,30.11,29.88,5,0,5,0.00
2013-6-2,83.6,64.8,43.8,44.7,38.6,31.0,81,46,15,29.89,29.72,6,1,6,0.00
2013-6-3,85.1,65.9,43.1,44.3,36.2,26.2,80,42,12,29.90,29.78,2,0,2,0.00
2013-6-4,88.4,68.0,43.6,48.5,37.6,25.5,77,43,11,29.95,29.83,5,1,5,0.00
2013-6-5,90.3,70.1,46.4,47.3,38.8,27.6,79,42,11,29.99,29.85,4,0,4,0.00
2013-6-6,91.8,70.6,48.3,49.1,39.5,31.8,77,40,12,29.95,29.84,5,1,5,0.00
2013-6-7,94.0,69.9,47.1,50.0,40.1,28.6,75,43,10,29.97,29.82,2,0,5,0.00
2013-6-8,95.1,75.1,53.1,52.6,44.4,34.1,77,42,12,29.91,29.75,6,1,6,0.00
2013-6-9,97.8,74.7,52.3,56.7,47.2,37.3,75,44,14,29.83,29.65,5,1,5,0.00
2013-6-10,76.8,67.1,57.3,53.9,46.4,34.5,75,50,29,29.85,29.65,9,2,9,0.00
2013-6-11,74.9,63.5,51.3,43.7,38.2,34.2,64,41,25,29.94,29.85,7,2,7,0.00
2013-6-12,77.2,60.0,44.2,43.0,33.2,21.1,81,43,15,30.00,29.89,6,1,6,0.00
2013-6-13,71.8,55.7,38.6,33.4,28.3,22.3,71,40,17,30.16,30.00,5,1,5,0.00
2013-6-14,76.0,58.0,36.0,37.2,29.6,26.0,74,40,16,30.17,29.93,5,1,5,0.00
2013-6-15,79.2,60.3,38.9,37.6,30.1,22.3,71,38,12,30.04,29.91,6,1,6,0.00
2013-6-16,79.0,60.3,38.2,35.1,32.1,29.0,70,40,16,30.12,30.04,6,1,6,0.00
2013-6-17,78.3,60.5,40.1,39.6,33.1,27.0,72,41,17,30.12,30.00,6,1,6,0.00
2013-6-18,67.4,56.5,42.2,40.1,33.2,19.8,75,46,17,29.98,29.86,8,3,8,0.00
2013-6-19,65.0,54.3,44.3,36.0,31.8,27.8,68,45,25,30.07,29.91,4,1,4,0.00
2013-6-20,70.3,54.0,33.8,33.7,30.7,27.4,77,46,23,30.10,29.98,4,1,4,0.00
2013-6-21,75.1,58.2,36.8,39.3,31.9,21.8,75,44,14,30.10,29.98,2,0,2,0.00
2013-6-22,80.7,61.8,39.5,37.1,34.4,31.9,77,42,17,30.06,29.88,6,1,6,0.00
2013-6-23,70.3,56.9,42.9,43.9,38.8,33.9,72,53,28,29.89,29.78,8,1,8,0.00
2013-6-24,56.9,54.2,51.3,48.5,45.3,41.5,90,72,63,29.92,29.75,6,1,6,0.03
2013-6-25,62.7,56.2,50.7,56.9,52.9,48.5,94,89,78,30.03,29.91,6,1,6,0.50
2013-6-26,75.8,64.7,55.7,55.5,53.1,49.8,95,70,41,30.09,30.01,7,1,7,0.01
2013-6-27,86.7,66.7,47.4,52.3,45.9,38.6,90,56,19,30.18,30.10,6,1,6,0.00
2013-6-28,94.5,72.6,49.9,56.9,50.0,45.3,85,52,19,30.16,29.94,4,1,4,0.00
2013-6-29,94.5,74.8,55.0,54.8,49.5,37.3,86,49,14,30.00,29.85,6,0,6,0.00
2013-6-30,97.8,74.9,53.8,53.1,49.6,44.1,82,48,17,29.92,29.78,6,1,6,0.00
2013-7-1,97.5,77.6,57.6,55.0,48.2,34.2,76,43,11,29.95,29.87,5,1,5,0.00
2013-7-2,101.0,75.0,62.3,60.5,53.8,43.3,83,54,15,30.01,29.83,3,0,3,0.00
2013-7-3,96.6,73.9,56.0,56.9,53.4,46.8,87,57,19,30.03,29.81,2,0,2,0.00
2013-7-4,91.8,74.7,58.6,58.0,51.9,43.3,84,51,20,29.89,29.70,2,0,2,0.00
2013-7-5,90.3,72.6,55.7,53.0,41.9,32.9,77,39,16,29.76,29.66,6,1,6,0.00
2013-7-6,87.2,63.2,45.5,41.2,34.7,28.3,73,41,13,29.84,29.76,5,1,5,0.00
2013-7-7,88.0,65.7,43.5,42.7,36.8,32.9,69,40,15,29.92,29.83,5,1,5,0.00
2013-7-8,86.7,64.5,46.1,43.8,38.2,33.4,74,44,15,30.05,29.93,8,1,8,0.00
2013-7-9,86.5,67.9,47.0,40.6,34.1,28.8,67,35,13,30.11,30.05,7,1,7,0.00
2013-7-10,88.6,68.1,45.2,42.5,35.0,27.0,72,36,11,30.10,29.93,7,1,7,0.00
2013-7-11,84.5,67.2,48.8,42.6,33.1,21.2,68,35,10,29.95,29.84,5,1,5,0.00
2013-7-12,83.2,64.0,42.2,36.3,30.5,24.0,68,34,14,29.99,29.90,8,1,8,0.00
2013-7-13,84.5,64.4,40.3,33.2,29.7,24.0,67,33,11,30.06,29.98,4,1,4,0.00
2013-7-14,87.8,67.6,44.9,39.0,35.6,30.9,65,36,13,30.08,29.92,4,1,4,0.00
2013-7-15,90.1,69.4,49.5,45.8,39.2,35.6,68,38,15,29.97,29.76,5,1,5,0.00
2013-7-16,81.8,68.0,52.8,45.3,34.9,25.9,67,34,13,30.00,29.81,6,1,6,0.00
2013-7-17,88.0,65.8,41.1,39.0,31.6,23.8,67,35,11,30.13,30.04,6,1,6,0.00
2013-7-18,93.6,70.5,44.8,42.8,37.5,30.4,71,37,11,30.12,29.93,5,1,5,0.00
2013-7-19,98.5,74.1,49.8,46.0,39.7,30.6,69,36,10,29.99,29.81,5,1,5,0.00
2013-7-20,100.4,77.9,55.0,55.2,45.3,37.3,67,38,12,29.87,29.69,5,1,5,0.00
2013-7-21,100.2,77.2,55.7,50.9,44.4,31.7,75,39,10,29.80,29.70,5,1,5,0.00
2013-7-22,95.6,74.7,56.7,50.6,44.5,38.4,69,38,16,29.93,29.80,4,1,4,0.00
2013-7-23,92.9,72.7,56.5,50.1,44.1,38.5,62,39,15,29.97,29.90,6,1,6,0.00
2013-7-24,89.0,75.7,59.9,51.5,49.2,46.4,69,42,24,29.94,29.87,4,1,4,0.00
2013-7-25,92.7,74.2,56.2,54.9,49.7,45.5,74,47,20,30.03,29.88,4,1,4,0.00
2013-7-26,91.4,74.5,61.3,54.0,48.1,38.7,72,44,20,30.06,29.95,5,0,5,0.00
2013-7-27,92.3,72.4,51.7,47.7,42.1,34.4,70,39,13,30.03,29.83,5,1,5,0.00
2013-7-28,88.8,71.0,52.8,49.7,41.2,33.6,70,39,17,29.87,29.76,3,0,3,0.00
2013-7-29,86.7,66.3,48.2,42.6,32.6,21.1,71,35,11,30.03,29.83,11,1,11,0.00
2013-7-30,84.5,64.7,41.6,36.5,31.4,26.9,62,33,13,30.14,30.05,6,1,6,0.00
2013-7-31,84.3,68.2,55.4,42.1,38.4,36.2,58,36,18,30.11,29.96,7,1,7,0.00
2013-8-1,77.7,63.5,42.1,36.0,26.1,18.4,74,31,11,30.04,29.98,6,1,6,0.00
2013-8-2,82.6,62.6,39.3,36.0,27.3,15.4,64,32,8,30.06,29.94,8,1,8,0.00
2013-8-3,85.3,64.4,41.9,36.3,32.8,28.6,67,36,14,30.03,29.92,6,1,6,0.00
2013-8-4,87.6,65.8,44.1,38.8,34.8,30.7,69,37,13,30.05,29.93,4,1,4,0.00
2013-8-5,88.0,67.4,43.6,38.8,34.4,24.4,71,36,10,30.05,29.93,4,1,4,0.00
2013-8-6,89.0,66.9,43.9,41.1,34.3,23.4,71,37,11,30.04,29.90,4,1,4,0.00
2013-8-7,80.3,67.1,53.2,40.8,36.9,33.9,56,35,19,30.01,29.93,7,1,7,0.00
2013-8-8,77.4,61.1,44.1,37.7,35.6,29.6,68,42,20,30.00,29.93,6,1,6,0.00
2013-8-9,78.3,61.1,45.5,40.5,36.1,31.4,71,44,18,30.00,29.90,8,1,8,0.00
2013-8-10,77.6,60.0,40.8,38.7,33.7,28.4,73,43,17,30.09,30.01,5,1,5,0.00
2013-8-11,81.6,63.0,40.5,35.3,33.0,26.0,73,38,13,30.12,29.98,6,1,6,0.00
2013-8-12,81.4,62.2,41.2,38.8,35.8,32.2,71,42,19,30.08,29.98,6,1,6,0.00
2013-8-13,85.3,64.3,41.9,40.3,34.1,26.7,76,40,12,30.11,29.99,4,1,4,0.00
2013-8-14,53.3,50.9,48.6,35.2,34.7,34.1,57,54,50,30.06,30.05,0,0,0,0.00
2013-8-15,84.0,70.0,55.1,31.2,26.9,17.7,40,23,9,30.05,29.98,1,0,1,0.00
2013-8-16,87.6,64.0,39.8,34.5,27.7,14.5,66,33,7,30.11,30.03,4,1,4,0.00
2013-8-17,90.1,67.7,44.1,38.7,31.9,13.5,67,34,6,30.09,29.90,5,0,5,0.00
2013-8-18,95.6,68.4,50.1,62.6,43.0,32.8,85,49,11,30.00,29.84,6,1,6,0.03
2013-8-19,87.6,68.0,54.1,55.2,49.1,42.5,78,55,21,30.00,29.93,2,0,2,0.00
2013-8-20,88.4,72.7,58.6,55.4,48.0,40.9,82,47,19,29.95,29.82,2,0,2,0.01
2013-8-21,88.8,66.4,56.3,56.4,49.6,42.1,92,61,20,29.99,29.81,2,0,2,0.33
2013-8-22,81.4,64.8,51.7,57.2,43.5,28.5,96,56,15,30.00,29.91,6,1,6,0.00
2013-8-23,81.4,60.0,42.1,43.6,37.2,27.9,84,51,15,29.99,29.85,2,0,2,0.00
2013-8-24,77.9,59.4,40.3,42.0,37.0,32.1,79,49,19,29.95,29.87,8,1,8,0.00
2013-8-25,75.4,59.7,45.5,43.8,40.5,37.6,76,53,28,29.99,29.92,4,1,4,0.00
2013-8-26,78.1,61.8,46.4,45.6,40.7,36.4,82,52,23,30.04,29.96,4,1,4,0.00
2013-8-27,81.8,61.7,42.2,43.6,39.5,36.8,81,50,21,30.00,29.87,4,1,4,0.00
2013-8-28,82.0,64.1,46.0,45.0,41.5,38.2,75,48,22,30.00,29.90,6,1,6,0.00
2013-8-29,81.6,63.8,45.4,46.5,39.6,35.9,79,47,20,30.11,30.00,6,1,6,0.00
2013-8-30,88.0,64.3,42.3,40.7,33.7,21.2,77,41,9,30.16,30.02,6,1,6,0.00
2013-8-31,87.4,64.3,43.3,41.6,36.2,30.0,71,41,14,30.09,29.94,4,0,4,0.00
2013-9-1,81.2,68.1,59.0,48.8,45.7,41.0,65,46,28,29.98,29.86,5,1,5,0.00
2013-9-2,64.7,60.6,58.6,61.8,57.4,48.2,96,90,55,29.96,29.88,0,0,0,1.97
2013-9-3,77.2,64.6,56.2,60.1,55.7,52.7,96,76,47,30.00,29.93,5,1,5,0.00
2013-9-4,80.1,63.5,49.4,55.0,51.1,47.2,93,69,37,30.05,29.95,5,1,5,0.00
2013-9-5,74.7,60.9,49.2,51.2,42.3,29.7,92,58,19,30.07,29.94,9,1,9,0.00
2013-9-6,81.2,58.4,38.8,46.8,39.1,34.0,87,56,19,30.15,30.00,4,0,4,0.00
2013-9-7,82.8,60.8,42.5,47.3,41.5,33.7,86,56,18,30.07,29.95,3,0,3,0.00
2013-9-8,84.9,61.6,41.2,44.2,37.9,27.9,86,51,13,30.06,29.91,2,0,2,0.00
2013-9-9,87.2,63.4,43.3,47.0,38.5,32.5,80,48,15,30.01,29.82,3,0,3,0.00
2013-9-10,86.7,63.5,42.5,44.9,37.1,25.7,80,46,11,29.96,29.83,4,0,4,0.00
2013-9-11,84.0,62.2,44.6,47.9,42.2,37.1,76,52,22,30.03,29.93,1,0,1,0.00
2013-9-12,84.0,62.3,47.1,59.0,48.1,41.3,92,65,25,30.03,29.88,6,1,6,0.20
2013-9-13,81.6,61.8,49.9,60.1,53.5,47.2,96,78,30,29.98,29.82,0,0,0,0.00
2013-9-14,84.7,64.0,48.2,53.4,48.7,45.1,91,64,26,29.91,29.77,0,0,0,0.00
2013-9-15,79.4,60.9,46.4,48.2,40.3,32.1,90,54,20,29.91,29.82,7,1,7,0.00
2013-9-16,77.9,57.2,38.2,43.0,37.0,32.3,79,52,23,29.97,29.87,6,1,6,0.00
2013-9-17,68.4,56.2,46.2,42.0,36.3,26.5,79,53,21,29.97,29.78,4,1,4,0.06
2013-9-18,72.7,52.7,37.0,38.4,33.7,22.4,88,56,15,30.08,29.96,2,0,2,0.00
2013-9-19,79.8,55.3,34.1,34.8,30.6,24.6,82,47,13,30.09,29.92,4,1,4,0.00
2013-9-20,73.2,54.5,35.2,42.7,32.9,27.6,78,50,20,29.95,29.82,8,2,8,0.00
2013-9-21,56.2,50.1,44.2,47.6,41.7,37.3,86,74,51,29.91,29.73,7,1,7,0.21
2013-9-22,60.7,48.6,41.1,42.0,39.4,37.2,89,72,45,30.12,29.92,5,0,5,0.00
2013-9-23,72.3,47.0,36.2,41.7,36.3,33.1,91,73,25,30.20,30.08,2,0,2,0.00
2013-9-24,55.9,44.0,40.3,39.3,37.8,36.8,87,80,52,30.07,29.88,0,0,4,0.00
2013-9-29,63.1,58.5,55.1,43.7,42.0,39.7,65,55,44,30.05,30.01,8,3,8,0.00
2013-9-30,61.6,54.7,46.5,47.7,44.7,42.2,85,69,57,30.04,29.98,7,2,7,0.01
2013-10-1,42.8,41.3,39.9,39.2,38.6,37.5,92,90,87,30.02,30.02,0,0,0,0.00
2013-10-4,57.2,47.9,40.3,21.0,19.9,19.0,42,34,23,30.44,30.38,3,1,3,0.00
2013-10-5,69.4,49.8,32.9,28.3,22.8,18.6,64,38,15,30.51,30.33,2,1,2,0.00
2013-10-6,71.8,47.5,27.9,28.7,22.7,15.9,73,44,12,30.39,30.22,4,0,4,0.00
2013-10-7,70.1,46.2,28.5,28.3,23.9,19.9,75,47,16,30.24,30.05,3,0,3,0.00
2013-10-8,62.0,44.9,27.6,30.4,25.6,20.6,75,50,24,30.12,29.80,2,0,2,0.00
2013-10-9,52.5,44.2,35.5,36.1,32.2,29.4,86,64,41,29.92,29.73,4,0,4,0.01
2013-10-10,62.6,43.0,29.7,36.0,30.8,26.0,86,66,30,30.15,29.94,4,1,4,0.00
2013-10-11,63.9,44.1,28.1,36.5,30.9,24.3,86,64,30,30.23,30.10,2,0,2,0.00
2013-10-12,59.8,42.7,28.2,33.7,30.1,24.6,86,66,35,30.17,30.00,4,1,4,0.00
2013-10-20,73.5,61.2,45.4,32.2,28.9,21.4,54,33,14,30.19,30.11,1,0,4,0.00
2013-10-21,57.3,43.5,27.8,31.3,27.3,22.4,80,55,37,30.27,30.14,1,0,1,0.00
2013-10-22,48.6,38.2,27.6,27.5,24.4,22.2,80,59,41,30.29,30.18,0,0,0,0.00
2013-10-23,56.7,37.2,27.5,32.0,24.6,20.4,75,62,39,30.24,30.08,1,0,1,0.00
2013-10-24,71.1,49.2,27.8,28.0,24.5,18.5,79,44,14,30.29,30.14,1,0,1,0.00
2013-10-25,69.9,44.6,32.1,27.4,23.8,16.9,70,48,13,30.41,30.30,0,0,0,0.00
2013-10-26,71.3,51.3,27.6,32.5,25.6,19.9,74,42,15,30.45,30.25,3,0,3,0.00
2013-10-27,64.2,43.2,26.6,28.5,22.9,16.7,78,51,20,30.27,29.63,5,1,5,0.00
2013-10-28,39.6,36.5,33.4,34.4,32.3,27.7,90,85,62,29.94,29.63,4,0,4,0.08
2013-10-29,43.3,39.3,35.5,35.2,34.0,32.9,90,82,73,30.19,29.95,1,0,2,0.01
2013-10-30,50.8,35.9,27.3,36.6,29.7,24.2,91,79,53,30.36,30.19,2,0,2,0.00
2013-10-31,60.4,38.3,25.3,35.8,28.2,21.7,89,71,32,30.48,30.33,1,0,1,0.00
2013-11-1,63.4,41.1,27.6,38.8,30.8,24.0,89,70,34,30.45,30.25,2,0,2,0.00
2013-11-2,59.3,41.7,26.0,36.0,29.8,22.4,87,67,31,30.28,30.04,5,1,5,0.00
2013-11-3,47.3,39.5,29.3,34.7,20.7,14.5,80,50,28,30.15,30.06,1,0,1,0.00
2013-11-4,48.5,33.2,22.2,18.9,16.0,13.4,73,52,25,30.37,30.11,2,0,2,0.00
2013-11-5,53.8,34.2,20.0,28.4,19.1,12.4,74,57,25,30.54,30.38,1,0,1,0.00
2013-11-6,59.6,38.9,25.8,36.4,26.7,19.0,76,64,32,30.57,30.41,4,0,4,0.00
2013-11-7,62.4,44.7,30.9,34.3,25.1,16.3,85,54,17,30.45,30.22,5,0,5,0.00
2013-11-8,61.3,41.8,27.3,33.5,27.6,19.8,79,59,35,30.26,30.11,4,0,4,0.00
2013-11-9,64.3,39.2,26.0,34.6,28.0,21.8,85,68,26,30.32,30.19,0,0,0,0.00
2013-11-10,65.0,38.9,25.8,30.5,23.0,14.7,85,59,14,30.38,30.26,3,0,3,0.00
2013-11-11,66.4,42.1,27.0,26.2,22.0,17.5,68,49,16,30.42,30.29,3,0,3,0.00
2013-11-12,65.8,48.5,38.3,33.9,30.1,25.3,62,51,24,30.46,30.36,2,0,2,0.00
2013-11-13,64.8,43.6,29.5,33.4,28.9,24.1,80,60,27,30.45,30.32,3,0,3,0.00
2013-11-14,62.0,41.1,25.8,32.3,25.4,21.1,83,58,24,30.36,29.97,6,0,6,0.00
2013-11-15,49.6,40.2,28.8,27.9,22.5,15.2,64,51,25,29.97,29.83,4,0,4,0.00
2013-11-16,51.0,40.2,27.2,27.0,22.2,15.7,73,50,33,30.06,29.84,5,1,5,0.00
2013-11-17,57.0,35.7,22.9,33.0,24.6,17.7,80,67,34,30.29,30.07,1,0,1,0.00
2013-11-18,55.6,39.1,23.9,35.7,28.6,19.5,83,68,43,30.31,30.17,5,1,5,0.00
2013-11-19,48.6,44.3,40.5,38.8,36.8,34.2,90,75,65,30.15,30.00,5,0,5,0.09
2013-11-20,45.8,41.2,37.3,44.5,39.1,34.9,95,92,90,30.03,29.92,1,0,1,0.46
2013-11-21,36.6,34.0,30.6,34.2,22.4,12.4,92,65,42,30.45,30.04,3,1,3,0.01
2013-11-22,45.1,34.8,26.1,13.3,8.0,2.0,50,34,18,30.54,30.35,5,1,5,0.00
2013-11-23,49.6,34.1,25.1,16.5,12.4,5.3,64,44,16,30.39,30.28,5,1,5,0.00
2013-11-24,50.1,28.6,15.6,20.6,15.0,9.7,77,60,23,30.56,30.39,1,0,1,0.00
2013-11-25,53.3,33.5,20.0,24.6,18.8,13.7,78,58,25,30.63,30.50,3,1,3,0.00
2013-11-26,54.4,34.2,22.2,31.5,22.5,16.7,80,65,30,30.55,30.32,1,0,1,0.00
2013-11-27,50.8,35.3,26.3,33.5,26.2,21.3,81,70,44,30.34,30.10,0,0,0,0.00
2013-11-28,49.8,34.1,26.0,31.8,26.5,21.8,85,75,45,30.36,30.18,1,0,1,0.00
2013-11-29,52.0,33.4,23.5,32.5,25.8,19.4,87,76,42,30.51,30.36,2,0,2,0.00
2013-11-30,53.9,33.9,25.1,31.6,25.3,21.2,86,73,34,30.56,30.42,2,0,2,0.00
2013-12-1,53.6,33.8,22.5,35.8,26.5,18.1,86,76,40,30.65,30.51,1,0,1,0.00
2013-12-2,55.6,38.3,24.4,35.8,26.3,20.5,87,66,29,30.50,30.00,8,2,8,0.00
2013-12-3,43.2,30.9,16.4,36.0,24.6,11.3,87,78,69,30.06,29.79,6,1,6,0.04
2013-12-4,27.3,17.6,10.2,13.5,9.3,4.4,80,70,54,30.38,30.08,1,0,1,0.00
2013-12-5,29.0,15.3,4.3,13.2,5.9,-2.2,76,67,41,30.44,30.33,1,0,1,0.00
2013-12-6,30.9,19.2,7.7,22.6,10.0,1.4,88,69,38,30.41,30.03,7,1,7,0.00
2013-12-7,26.3,23.9,21.0,22.7,17.3,11.7,88,76,57,30.17,29.99,5,0,5,0.00
2013-12-8,22.4,12.3,5.6,9.1,4.2,-1.2,73,70,56,30.79,30.57,1,0,5,0.00
2013-12-9,26.6,12.9,0.3,10.6,3.6,-7.4,75,67,50,30.93,30.81,2,0,2,0.00
2013-12-10,37.6,16.9,-1.0,20.3,7.9,-8.2,75,68,48,30.89,30.67,4,0,4,0.00
2013-12-11,35.0,23.7,16.2,17.1,13.3,9.9,77,65,43,30.69,30.58,2,1,2,0.00
2013-12-12,38.3,21.3,7.0,24.0,13.6,1.0,81,73,52,30.67,30.49,3,0,3,0.00
2013-12-13,43.6,23.5,9.5,26.6,15.8,3.8,81,73,41,30.75,30.57,1,0,1,0.06
2013-12-14,42.3,28.9,19.4,25.4,20.1,14.8,83,71,46,30.83,30.70,3,1,3,0.03
2013-12-15,46.0,30.2,20.0,26.2,21.1,14.6,81,70,39,30.78,30.62,1,0,1,0.05
2013-12-16,47.3,32.2,19.4,26.1,21.8,13.7,83,67,37,30.72,30.56,4,1,4,0.06
2013-12-17,46.5,32.0,25.8,27.7,23.4,19.2,84,72,44,30.63,30.41,2,0,2,0.06
2013-12-18,51.7,33.0,22.1,29.9,24.0,18.1,85,72,36,30.39,29.91,2,0,2,0.06
2013-12-19,36.5,32.2,25.6,27.3,19.3,13.1,80,60,42,30.19,29.88,4,0,4,0.00
2013-12-20,39.6,27.1,18.4,18.6,13.0,3.9,72,58,22,30.34,30.19,1,0,1,0.00
2013-12-21,48.8,32.2,22.1,29.3,22.4,16.0,84,68,41,30.41,30.22,2,0,2,0.01
2013-12-22,50.2,31.3,21.6,31.8,24.6,17.5,87,78,49,30.65,30.41,4,0,4,0.00
2013-12-23,46.0,30.2,21.1,32.3,24.0,17.0,87,79,56,30.71,30.60,0,0,0,0.00
2013-12-24,49.4,32.0,20.8,32.2,25.1,16.7,88,77,50,30.73,30.60,4,0,4,0.00
2013-12-25,46.7,33.3,26.0,30.2,26.4,22.9,89,77,51,30.71,30.57,2,0,2,0.00
2013-12-26,47.3,32.7,24.1,28.6,24.4,20.0,86,73,45,30.67,30.55,3,1,3,0.00
2013-12-27,44.8,28.9,19.1,28.7,21.2,14.5,83,74,51,30.61,30.44,0,0,0,0.00
2013-12-28,47.3,28.4,16.1,23.1,17.8,11.0,83,68,28,30.58,30.44,2,0,2,0.00
2013-12-29,45.7,33.3,26.9,23.6,20.7,18.3,73,61,33,30.58,30.46,2,1,2,0.00
2013-12-30,44.8,31.3,20.5,25.5,21.1,15.3,80,67,41,30.57,30.45,2,0,2,0.00
2013-12-31,48.9,32.8,26.4,26.5,21.4,18.2,78,65,33,30.55,30.41,2,0,2,0.00
2014-1-1,51.7,32.2,19.5,25.4,20.3,14.8,82,64,30,30.57,30.44,2,0,2,0.00
2014-1-2,50.2,32.1,21.4,29.5,23.2,16.8,83,71,37,30.52,30.37,0,0,0,0.00